Overview Statistics Trail Chart Weather Telemetry Raw packets
 

This is the latest recevied weather packets stored in our database for station/object K0APR. If no packets are shown the sender has not sent any weather packets the latest 10 day(s).

<< 97 98 99 100 101 102 103 >>
Time Temp. Humidity Pressure Rain* Wind** Luminosity Snow
1787943588 28.89° C 52% 1017.9 hPa 0 mm - 244 W/m² -
1787943283 28.89° C 51% 1018.3 hPa 0 mm - 267 W/m² -
1787942978 28.33° C 51% 1017.9 hPa 0 mm - 259 W/m² -
1787942674 28.89° C 51% 1017.9 hPa 0 mm - 250 W/m² -
1787942373 28.89° C 51% 1018.3 hPa 0 mm - 273 W/m² -
1787942068 28.89° C 51% 1018.3 hPa 0 mm - 269 W/m² -
1787941764 29.44° C 50% 1018.3 hPa 0 mm - 381 W/m² -
1787941462 29.44° C 50% 1018.6 hPa 0 mm - 457 W/m² -
1787941161 29.44° C 49% 1018.3 hPa 0 mm - 553 W/m² -
1787940856 29.44° C 50% 1018.3 hPa 0 mm - 577 W/m² -
1787940554 30° C 49% 1018.6 hPa 0 mm - 376 W/m² -
1787940249 28.89° C 50% 1018.6 hPa 0 mm - 594 W/m² -
1787939943 30° C 50% 1018.6 hPa 0 mm - 603 W/m² -
1787939643 28.89° C 53% 1018.6 hPa 0 mm - 587 W/m² -
1787939337 28.33° C 54% 1018.6 hPa 0 mm - 312 W/m² -
1787939032 28.89° C 52% 1019 hPa 0 mm - 402 W/m² -
1787938730 28.33° C 55% 1018.6 hPa 0 mm - 517 W/m² -
1787938428 28.33° C 53% 1019 hPa 0 mm - 290 W/m² -
1787938123 27.78° C 55% 1018.6 hPa 0 mm - 413 W/m² -
1787937826 27.78° C 58% 1019 hPa 0 mm - 344 W/m² -
1787937514 27.22° C 59% 1019 hPa 0 mm - 324 W/m² -
1787937210 27.22° C 60% 1019 hPa 0 mm - 242 W/m² -
1787936910 27.22° C 59% 1019.3 hPa 0 mm - 189 W/m² -
1787936609 27.78° C 57% 1019 hPa 0 mm - 380 W/m² -
1787936308 27.22° C 58% 1019.3 hPa 0 mm - 425 W/m² -

* Rain latest hour (hover to see other rain measurements)
** Current wind speed in m/s (hover to see current wind gust speed)